sat.trackr.live / text

‹ back to catalog

STARLINK-5154

NORAD 54176 · 2022-141V

PAYLOAD ACTIVE UNKNOWN

§ Identity

Operator
Country
US
Launch date
2022-10-28
Launch site
AFWTR
Launch vehicle
Mass (kg)
RCS (m²)

Purposes: comms

External: N2YO · Heavens-Above · Gunter

§ Orbital elements

Epoch: 2026-09-20T12:50:09.356928Z

Period
93.85 min
Inclination
53.1608°
Eccentricity
0.0001528
Mean motion
15.34385244 rev/d
Perigee alt
461.7 km
Apogee alt
463.8 km
Semi-major
6,840.9 km
B*
-5.9382e-6
RAAN
193.2580°
Arg perigee
86.0347°
Mean anomaly
274.0830°
Rev number
21,549

§ Raw data

STARLINK-51541 54176U 22141V   26263.53483052 -.00000577  00000+0 -59382-5 0  99942 54176  53.1608 193.2580 0001528  86.0347 274.0830 15.34385244215494

JSON: /api/v1/satellites/54176 · /tle

For live sub-satellite position, see the globe view (requires WebGL).

§ Visibility from observer

Set your observer location to see the next 7 days of passes ≥ 10°. The values pass through the URL so the page stays shareable.

No JS? Fill the form by hand. The geolocation button needs JavaScript.